Wind_Speed
20 20 20 20 21 20 19 18 16 16 16 15 15 14 14 14 13 13 13 13 12 12 10 9 9 9 9 9 9 8 8 7 6 5 5 5 5 5 6 6 6 6 6 6 6 6 6 7 7 7 7 7 7 7 8 8 8 7 6 6 7 7 8 8 8 8 8 8 7 7 7 8 8 8 7 7 5 4 4 4 5 7 9 10 11
20 20 20 20 20 20 20 19 18 16 16 16 16 15 15 15 14 14 14 14 14 13 12 11 10 10 10 10 9 8 7 6 5 5 4 4 4 4 5 5 6 6 5 5 5 5 4 5 6 6 6 6 6 7 8 8 7 6 5 5 6 6 6 7 7 7 7 7 7 7 7 6 5 4 5 5 4 3 3 4 5 7 8 10 11
20 20 20 19 20 20 20 20 19 17 16 16 16 16 16 16 15 14 14 14 15 15 14 13 12 11 11 11 10 8 7 5 4 3 3 3 3 3 4 4 5 5 5 4 4 3 3 3 3 4 4 5 5 6 7 7 7 7 5 5 5 5 5 5 6 5 5 6 6 5 5 4 3 3 5 5 3 3 2 3 5 8 10 11 13
18 18 18 18 19 19 19 20 19 18 17 17 17 17 17 17 16 15 14 14 15 16 15 14 13 13 12 12 11 10 8 6 4 2 1 1 1 1 2 3 3 4 4 4 3 3 2 1 1 2 2 3 4 5 6 7 7 7 6 5 4 4 4 4 4 4 4 4 4 5 4 2 1 2 4 4 3 3 3 3 6 9 11 12 13
14 15 15 16 17 18 18 19 19 19 19 18 18 18 18 18 17 15 14 14 15 16 17 16 15 14 14 14 13 12 10 7 5 4 3 1 1 1 1 1 2 3 3 3 2 2 1 1 1 1 1 1 2 3 5 6 7 8 7 6 5 4 4 4 4 4 4 4 3 4 3 2 1 2 5 3 1 2 3 3 5 8 10 12 13
12 12 12 13 15 17 18 18 19 20 20 20 20 19 19 18 18 17 16 15 15 16 17 17 17 16 15 15 14 14 12 9 7 6 5 4 3 2 2 1 1 2 2 2 2 1 0 1 2 3 3 3 3 3 4 5 7 8 8 8 7 6 5 4 4 4 4 4 4 4 4 3 2 1 4 3 1 1 3 3 4 7 10 12 13
11 11 11 11 12 14 16 18 19 20 20 21 21 21 20 19 19 18 17 16 16 16 17 18 18 18 17 16 15 15 14 12 10 9 8 7 5 4 4 3 2 1 1 1 1 1 1 2 3 5 5 5 5 5 5 6 6 8 9 10 9 8 8 7 6 6 6 5 5 6 6 5 4 2 1 1 2 4 5 5 6 7 9 11 13
11 11 11 11 11 11 13 15 18 19 20 21 21 21 21 20 20 20 19 18 17 17 18 18 19 19 19 18 17 16 15 14 13 12 11 10 8 7 6 5 4 3 2 2 1 2 3 3 4 5 7 7 7 7 7 7 8 8 9 10 11 11 10 10 9 8 8 7 6 7 7 6 5 4 3 3 5 5 6 8 8 8 8 11 13
12 11 12 12 12 12 11 11 14 16 19 20 20 21 21 21 22 21 21 20 19 19 19 19 20 20 20 19 19 18 16 16 16 16 15 13 11 9 7 7 7 6 4 4 3 4 4 4 5 6 7 8 9 9 10 9 10 10 9 10 11 12 13 13 12 11 11 10 9 8 8 7 6 6 6 6 7 6 7 8 10 9 9 12 15
14 11 12 13 14 13 12 11 11 13 15 18 20 21 21 21 22 22 22 22 21 21 21 20 20 20 21 21 20 19 18 18 18 18 17 16 14 12 9 8 8 8 7 6 5 5 6 5 6 6 7 8 9 10 11 12 12 12 11 11 11 12 14 15 15 14 13 13 12 11 10 9 8 8 8 9 9 9 9 10 11 11 11 12 16
15 13 12 14 15 14 13 11 11 11 12 15 18 20 22 22 21 22 23 24 23 23 23 22 21 21 22 22 21 20 20 20 20 20 19 18 16 14 12 10 9 10 9 8 7 7 7 7 7 7 8 9 10 11 12 13 14 14 14 13 12 13 14 15 16 17 16 16 15 14 12 11 10 11 11 11 11 11 11 10 10 11 12 13 15
17 14 14 15 15 16 15 13 11 11 11 13 15 18 21 21 22 22 22 23 24 24 24 24 23 23 23 23 22 21 21 21 22 21 21 20 18 16 14 12 11 11 11 11 10 9 9 9 9 9 9 10 11 11 12 13 14 15 15 15 14 15 15 15 17 18 18 18 18 17 15 13 13 13 13 13 13 13 13 11 10 10 12 15 16
18 16 15 15 15 16 16 15 12 11 12 13 13 15 17 19 21 22 23 24 25 25 25 25 25 25 24 23 23 22 22 22 22 22 22 21 20 17 15 14 13 13 13 13 12 11 10 10 10 10 11 11 11 12 12 12 14 15 16 16 16 16 17 17 17 18 19 19 20 20 17 15 15 15 15 15 15 15 14 13 12 12 13 16 18
20 18 17 17 16 17 18 17 14 12 13 13 13 13 14 16 19 21 22 24 25 25 25 25 26 26 25 25 24 24 23 23 23 23 22 22 20 19 17 15 14 14 14 14 14 14 13 12 11 12 12 12 12 13 13 13 13 15 16 17 17 18 18 19 19 19 19 19 21 22 20 17 16 17 17 17 17 16 16 16 15 14 15 18 20
22 20 19 19 18 18 18 18 17 15 14 13 13 13 14 15 17 19 21 23 24 25 25 25 25 26 26 26 25 25 24 24 24 24 23 22 21 20 18 17 15 15 16 16 16 16 15 14 13 13 14 14 14 13 14 14 14 14 15 17 18 19 20 20 21 20 20 20 21 22 22 20 19 19 19 19 19 19 18 18 18 17 18 19 20
23 21 21 20 19 19 19 20 19 18 17 15 14 14 14 15 16 17 19 21 23 24 25 24 25 25 26 26 26 25 25 25 25 25 25 23 22 21 20 18 17 17 17 18 18 18 17 16 15 15 15 15 15 14 14 15 15 14 15 16 18 20 21 22 22 21 21 21 21 22 23 22 22 21 21 21 21 21 20 19 20 20 21 21 20
24 23 21 21 21 21 21 21 21 21 20 18 16 15 15 16 16 17 18 20 21 23 24 24 25 25 26 26 26 26 26 26 26 26 26 25 23 21 21 20 19 18 19 19 20 19 19 18 18 17 17 16 16 15 15 15 16 16 16 16 18 19 21 22 22 22 21 21 21 22 24 24 24 24 23 22 23 22 21 21 22 23 24 23 22
25 24 22 22 22 22 23 23 23 23 22 21 19 17 17 17 17 17 18 19 20 22 24 24 24 24 25 25 26 27 27 27 26 27 27 26 24 22 22 21 20 19 20 21 21 21 20 20 20 19 18 18 17 15 14 15 16 17 17 17 18 19 21 22 22 22 22 21 22 23 25 26 25 24 24 24 24 24 23 23 24 25 25 25 25
26 24 23 23 23 23 24 25 25 25 24 23 22 20 19 18 19 19 18 19 20 21 23 24 24 23 23 24 26 27 27 27 27 27 27 26 25 23 22 22 21 20 21 22 22 22 21 22 22 21 20 20 19 17 15 15 15 17 18 18 18 20 22 22 22 23 23 23 23 24 25 26 25 24 25 25 25 25 24 25 26 26 27 27 27
26 25 25 24 24 24 25 26 27 27 26 25 25 24 22 20 20 20 20 20 20 21 22 23 23 22 23 23 24 25 26 27 27 27 27 26 25 24 23 22 21 22 23 23 23 23 23 23 23 22 21 21 20 18 17 16 16 17 18 18 19 21 22 22 22 24 24 24 24 24 25 25 25 24 25 25 25 25 26 27 27 27 28 29 30
28 28 27 25 25 24 24 25 27 28 28 28 27 26 24 23 22 22 22 22 21 21 21 22 23 22 22 22 23 24 24 25 26 26 26 26 25 25 24 23 23 23 24 24 23 24 24 23 23 23 23 22 21 20 19 18 17 18 18 19 20 22 23 22 22 24 25 25 24 24 23 23 23 24 25 25 25 26 27 28 27 27 29 30 31
32 31 28 26 25 24 23 24 27 29 30 30 29 27 26 25 24 23 24 24 23 22 21 22 23 23 22 22 22 22 23 23 24 25 26 26 25 24 23 23 24 25 24 24 24 25 24 24 24 23 23 23 22 21 21 20 19 19 19 20 21 22 23 23 23 24 25 25 24 23 22 21 22 23 24 24 24 26 28 28 28 28 29 30 31
35 33 30 28 26 25 24 24 25 27 29 30 29 28 28 28 26 25 25 25 24 23 22 22 23 23 23 22 21 21 22 22 23 24 25 26 25 24 24 24 24 24 24 25 26 26 25 25 24 24 23 22 22 23 23 21 20 19 19 20 20 22 22 23 23 24 24 24 24 23 22 22 23 24 24 23 25 28 29 29 29 31 31 32 31
36 34 32 30 28 27 26 25 25 26 28 29 29 29 29 29 28 27 27 26 25 24 22 22 23 24 23 22 21 21 22 22 23 24 25 26 26 25 24 24 24 25 25 26 27 27 26 25 24 23 22 22 22 23 22 21 19 19 20 20 20 20 21 21 22 22 22 22 23 23 23 24 25 26 26 27 30 32 32 32 33 33 34 34 33
37 36 33 31 30 29 28 27 27 27 28 29 29 28 29 30 29 28 27 27 26 25 23 23 23 24 24 23 22 22 22 23 24 25 26 26 26 25 24 24 25 25 26 26 27 26 25 23 22 21 20 20 21 21 20 19 18 18 18 18 18 17 18 19 19 20 20 21 22 23 24 25 26 26 27 29 31 33 33 34 35 35 35 35 33
39 38 35 34 33 32 32 30 29 28 29 29 28 28 29 29 29 28 28 28 26 24 23 23 24 25 25 24 23 23 23 23 24 26 26 25 25 25 24 24 25 26 26 25 25 24 23 21 20 18 18 18 19 18 17 16 16 15 15 15 14 13 13 14 15 15 16 17 19 20 21 22 23 24 26 27 29 31 33 35 35 36 36 36 34
40 39 37 37 36 36 35 33 32 32 32 30 30 30 30 30 30 28 27 26 25 24 23 24 25 26 25 24 23 23 22 23 24 26 26 25 25 25 25 25 25 25 24 24 23 22 21 19 17 16 16 16 16 15 15 15 14 14 14 14 13 13 14 14 15 16 17 18 19 20 21 22 23 25 27 28 29 31 34 35 36 37 38 37 35
41 40 40 40 40 39 39 37 36 35 35 34 32 32 33 33 31 27 24 24 24 24 25 26 27 28 26 24 24 23 23 23 24 25 26 25 25 25 25 25 24 23 22 22 22 20 18 16 15 15 15 15 15 15 15 16 16 16 16 16 16 17 17 18 19 20 22 23 24 25 26 27 28 30 31 32 33 34 37 38 39 39 39 39 37
42 42 42 42 44 43 43 42 40 39 39 38 36 36 35 35 34 29 25 25 26 26 26 28 29 29 27 26 24 23 23 23 24 25 26 26 26 25 25 24 23 21 20 21 20 19 17 16 16 16 16 16 17 17 17 18 18 19 19 20 20 20 21 21 22 23 25 27 29 30 31 32 33 34 35 36 37 39 42 44 43 42 40 39 39
43 43 43 45 47 47 46 46 45 45 44 43 42 39 37 37 36 32 27 26 27 27 27 29 30 30 28 26 25 24 24 25 26 26 26 26 25 24 24 24 22 21 21 21 20 19 17 17 17 18 18 19 19 20 20 21 21 22 23 24 25 25 25 25 26 27 29 30 32 33 35 36 36 37 39 40 41 42 43 45 44 42 39 38 38
43 44 45 47 48 50 51 51 51 50 49 48 46 43 41 39 38 34 29 28 28 28 28 29 30 30 28 27 26 26 27 27 27 26 25 25 25 24 24 23 22 22 23 22 21 20 19 19 20 21 22 22 23 23 23 24 24 25 26 27 28 28 28 29 30 31 31 32 34 35 37 39 40 40 40 40 40 40 40 40 40 39 37 36 36
44 44 46 48 50 52 53 53 54 53 53 51 49 47 44 42 40 36 31 29 29 28 28 29 30 29 29 28 27 28 28 28 27 26 26 25 25 25 25 24 23 24 24 23 22 22 22 22 23 24 24 24 25 26 26 26 27 28 29 30 31 31 32 33 34 34 34 35 36 38 40 41 42 41 39 37 36 36 36 37 37 36 34 32 31
44 44 46 48 50 52 53 54 55 56 56 55 54 52 48 45 42 38 34 31 30 28 27 28 29 29 29 29 28 29 29 28 27 26 25 25 26 26 26 25 24 24 24 23 23 24 24 24 24 24 25 26 26 28 29 30 30 31 31 32 34 34 35 36 37 38 38 39 39 40 42 43 42 39 37 35 33 33 33 33 33 33 31 29 28
43 45 48 49 50 52 53 54 56 57 57 55 54 55 53 49 44 40 35 32 31 29 28 28 28 28 28 29 29 29 29 28 26 25 25 25 26 26 26 26 25 25 24 24 25 25 25 25 25 26 27 27 29 30 31 32 33 34 34 35 36 37 38 40 41 42 43 43 42 43 43 43 41 38 35 33 31 31 31 31 30 29 29 29 29
44 46 48 49 49 50 51 53 55 56 55 54 52 53 53 51 47 43 39 35 32 31 30 28 28 27 28 29 29 29 28 27 27 26 26 25 26 26 26 26 26 26 27 27 27 26 26 26 27 28 29 30 32 33 34 35 36 37 37 38 39 40 41 41 42 43 44 43 43 44 43 40 38 37 34 32 31 31 31 31 30 30 30 30 31
45 47 48 48 49 49 49 51 51 51 51 52 51 50 53 53 48 44 41 38 35 34 32 30 28 27 28 28 29 29 28 28 28 28 28 28 28 28 28 28 28 28 29 29 29 29 29 29 30 31 33 34 36 37 37 38 39 40 41 41 42 42 42 42 42 42 42 43 43 43 40 38 36 35 33 32 33 33 32 32 32 33 33 33 34
46 48 49 48 48 47 46 46 46 47 49 50 50 51 53 53 50 46 42 40 37 35 33 32 30 29 28 28 28 29 29 29 29 30 30 30 30 30 29 30 30 31 31 31 31 31 32 33 34 36 37 38 39 39 40 40 41 42 43 43 44 44 44 44 44 44 44 43 43 41 38 37 37 36 35 35 35 35 34 34 35 36 36 36 36
47 49 50 49 48 47 45 44 43 43 46 48 49 51 53 52 51 49 46 41 38 37 36 35 33 31 28 28 28 29 30 30 31 31 31 31 31 31 31 32 33 33 33 34 34 35 35 37 38 40 41 42 42 42 42 42 42 43 44 44 45 47 47 46 45 45 44 42 41 39 37 37 37 37 37 37 37 37 37 38 38 39 39 39 39
48 50 50 50 49 48 46 44 43 44 45 47 48 49 51 53 55 54 50 45 42 40 39 37 34 32 30 30 31 31 32 32 32 32 32 31 32 33 34 35 36 36 37 38 39 39 40 40 42 42 43 44 43 43 42 42 43 44 44 44 45 47 47 46 45 44 43 41 40 39 38 38 38 38 38 38 38 39 40 40 41 41 41 41 42
48 50 50 50 49 48 47 46 46 46 47 46 47 48 50 53 56 57 54 51 46 41 38 37 36 35 34 35 35 34 34 33 33 33 32 32 33 34 35 36 37 38 39 40 40 41 41 41 42 42 43 43 43 43 44 44 45 45 45 45 44 43 43 43 43 42 41 40 40 40 40 40 41 41 40 40 40 40 41 42 42 43 44 44 46
51 51 50 50 47 44 44 45 46 48 49 48 48 49 51 52 56 57 56 53 47 40 38 41 42 41 39 38 37 36 35 35 34 34 34 34 34 35 36 37 38 38 39 40 40 41 41 41 42 43 43 44 45 44 44 44 44 44 44 43 42 40 40 40 40 40 40 41 41 41 41 41 42 42 43 43 42 42 43 44 45 46 47 49 51
54 52 51 50 46 42 41 44 45 47 48 48 49 50 49 50 54 57 58 58 54 46 43 45 46 44 41 38 36 37 37 37 36 37 37 36 37 37 38 38 39 39 40 41 41 42 42 43 43 43 44 43 43 41 41 40 40 40 41 41 40 39 39 40 40 41 42 43 43 43 43 43 44 44 44 44 45 45 46 46 47 49 51 53 54
54 53 51 49 46 42 41 45 49 50 48 46 48 51 50 51 54 54 54 57 56 48 43 43 44 42 40 37 36 38 39 39 39 39 39 39 39 39 38 39 39 40 41 42 42 42 42 41 40 40 39 38 37 37 37 37 37 38 39 39 39 40 40 41 42 42 43 43 44 45 46 46 46 47 47 47 47 48 48 49 51 52 54 55 55
54 54 53 48 44 40 36 35 38 43 45 45 45 47 48 51 52 48 45 47 48 45 43 42 41 39 39 38 39 41 42 41 41 41 41 40 40 39 39 39 39 39 40 40 40 39 38 36 35 35 35 35 35 35 36 37 38 39 40 41 42 43 43 43 44 44 44 45 46 47 48 48 49 50 50 50 50 51 51 52 53 54 55 56 57
56 55 54 50 47 46 43 37 32 31 34 38 40 42 43 44 44 43 42 41 41 41 43 43 42 41 41 42 42 43 44 43 43 43 42 40 39 39 38 38 38 37 37 36 35 35 34 33 33 34 34 34 34 35 36 37 39 40 41 42 44 45 45 45 46 47 47 48 48 49 50 51 52 52 52 52 52 52 53 54 55 56 57 59 60
55 55 53 51 50 51 49 45 39 34 30 30 31 31 34 38 43 43 39 35 34 35 39 42 45 46 46 45 45 45 45 45 44 43 41 40 39 39 38 38 37 36 35 35 34 34 34 34 34 34 34 34 35 36 37 38 39 40 41 42 43 44 44 44 45 47 48 49 50 51 52 54 54 54 54 54 54 53 54 55 56 58 60 61 62
55 56 54 52 52 52 50 46 43 40 36 34 32 29 28 33 40 41 38 34 32 32 35 39 43 46 47 47 47 47 47 45 43 42 40 40 41 40 39 38 37 36 36 35 35 35 35 36 36 36 36 37 37 38 39 40 41 42 43 44 45 46 47 47 48 49 51 53 54 54 55 55 55 55 55 55 54 54 56 57 59 60 62 63 64
56 57 57 53 51 51 51 48 45 43 41 41 41 40 37 36 38 41 42 40 37 34 34 38 43 47 48 49 49 50 48 44 41 41 42 43 43 41 40 39 39 38 38 37 37 37 38 38 39 39 40 40 41 41 42 43 44 45 45 46 47 49 50 51 51 52 54 55 56 56 56 56 56 57 56 55 55 57 59 61 62 63 64 64 65
59 58 59 59 56 52 50 48 46 45 44 42 40 39 38 37 37 39 41 42 40 39 39 42 45 49 51 51 51 51 48 44 42 43 45 45 44 43 42 42 42 42 41 41 41 41 41 42 43 43 44 44 45 46 47 47 48 49 50 51 51 52 53 53 54 54 55 56 57 58 58 59 59 58 57 58 60 63 64 64 65 65 65 65 66
62 59 58 60 60 59 55 51 49 48 47 44 41 37 37 38 41 43 45 46 45 44 44 46 48 50 52 51 51 50 48 46 45 46 47 46 45 44 45 45 46 46 46 45 45 45 45 47 48 48 48 49 49 50 51 51 52 53 54 55 56 57 57 57 57 58 59 60 61 62 63 63 62 62 63 65 67 68 67 67 68 69 68 68 69
65 64 60 58 58 58 57 55 53 52 49 47 45 43 42 43 45 46 47 48 49 51 52 52 53 54 53 52 53 53 52 51 49 48 48 48 48 48 48 49 49 49 49 49 49 49 50 51 52 53 53 54 54 54 55 56 56 57 58 59 60 61 62 62 62 63 64 64 65 66 66 66 65 66 67 68 68 68 69 71 72 73 73 73 74
Wind_Direction
206 207 209 211 215 218 220 221 219 216 217 221 224 230 234 235 232 229 228 229 229 230 224 209 196 187 179 172 165 159 152 145 139 132 124 113 104 97 92 91 90 86 84 84 87 85 82 83 86 91 97 104 112 120 123 123 124 124 121 119 119 120 122 123 126 130 129 126 119 108 97 86 79 74 62 56 56 51 48 38 15 357 350 350 353
204 206 209 212 215 217 219 222 222 219 219 221 224 229 233 237 237 233 230 229 230 231 228 218 208 199 193 188 182 177 170 162 155 146 133 120 108 98 92 88 86 86 83 83 87 88 84 79 79 87 96 103 114 125 132 134 135 136 135 131 129 128 132 135 136 137 136 131 122 112 104 97 83 51 28 32 32 16 23 25 360 347 345 349 356
203 206 209 213 216 218 220 223 224 223 222 224 227 230 233 237 239 238 235 232 232 234 233 226 218 210 204 201 198 197 192 186 180 164 141 124 110 97 91 87 82 81 81 81 82 87 92 87 77 79 90 104 118 132 142 147 149 150 150 142 136 138 143 147 150 148 144 135 130 126 118 103 71 11 344 335 317 301 320 339 338 340 344 352 360
203 206 210 215 219 222 224 226 227 226 224 225 228 231 234 238 240 240 240 236 235 237 238 235 228 220 214 210 210 211 211 211 215 216 180 122 104 86 84 84 77 69 69 74 77 82 95 113 99 85 87 105 124 141 153 163 166 166 166 159 149 149 153 163 169 167 161 153 148 147 138 118 66 357 341 322 265 250 271 318 339 342 342 347 356
200 203 208 214 220 224 227 228 230 229 227 226 227 230 233 238 240 241 241 239 237 239 241 241 237 230 223 218 218 220 220 223 233 250 267 291 322 326 16 65 69 59 55 58 60 70 88 210 227 207 185 177 164 163 167 178 183 183 184 181 171 168 170 183 193 191 189 182 174 169 161 171 189 28 20 22 165 226 266 319 347 341 333 338 351
203 199 204 211 218 223 226 228 230 230 230 228 228 229 232 237 241 241 240 239 238 238 240 243 243 239 234 228 225 226 228 231 240 254 270 283 288 286 287 306 37 45 38 40 34 24 34 233 245 247 236 226 227 218 204 199 198 198 201 200 195 190 190 200 213 215 214 210 203 199 200 207 207 59 33 40 139 242 282 315 331 324 325 335 346
215 204 202 206 213 220 223 227 229 229 231 231 230 231 232 236 240 242 242 240 238 238 238 241 243 244 243 238 233 231 232 236 244 254 264 271 279 280 277 276 276 297 334 359 359 323 295 263 248 249 248 242 242 241 235 228 220 214 213 213 212 208 205 209 220 229 232 231 223 215 214 219 226 229 340 330 279 272 276 290 304 318 330 332 334
223 213 207 206 210 216 220 225 228 229 230 231 231 232 233 234 238 242 244 243 241 240 238 239 241 244 246 244 241 237 235 237 244 250 257 263 269 273 274 271 264 257 251 254 267 273 271 267 258 252 250 248 247 249 248 244 240 232 225 223 223 222 219 219 225 234 240 244 242 234 227 227 237 242 240 258 279 286 280 279 290 310 326 321 319
224 217 210 207 211 214 215 221 226 228 229 229 230 231 231 233 235 239 242 244 244 242 241 240 241 243 246 246 246 244 240 239 242 245 250 255 260 266 269 268 262 256 250 242 242 250 258 262 259 257 256 252 249 249 251 251 250 247 240 233 230 231 230 229 232 236 243 250 252 251 247 243 248 255 255 257 268 285 293 290 287 291 301 308 313
227 221 213 209 211 214 214 217 223 227 229 228 228 229 229 231 233 235 238 240 243 245 244 243 242 243 246 247 246 246 245 243 242 243 245 248 254 259 262 263 262 258 255 249 240 241 248 255 257 257 257 256 251 249 249 251 254 255 253 247 241 238 237 237 239 241 244 251 256 258 260 259 259 263 266 266 269 278 291 296 290 282 284 296 307
227 226 221 214 211 212 214 216 220 225 230 228 228 228 228 228 229 233 236 237 239 243 245 246 245 244 246 247 246 245 245 244 243 243 242 244 248 253 254 257 259 257 256 255 249 244 242 247 252 254 256 257 254 251 249 249 252 256 257 255 252 249 244 241 243 245 246 252 257 261 263 265 266 267 270 273 275 277 284 292 290 279 277 284 294
226 226 228 223 216 212 214 216 218 223 229 229 228 229 229 227 227 229 234 236 236 238 241 244 245 244 245 247 248 246 244 244 244 243 242 241 243 247 250 252 254 255 255 254 254 251 245 243 247 250 254 256 257 256 252 248 250 253 257 258 257 256 254 248 246 247 247 250 256 261 265 268 270 271 272 276 278 280 283 290 290 281 278 281 286
222 224 229 229 223 218 216 216 215 219 227 231 231 230 231 230 228 227 231 235 235 235 236 240 243 244 244 245 247 247 245 245 245 244 242 241 240 242 246 250 252 254 254 252 253 256 253 249 247 247 249 253 257 259 257 252 250 251 254 257 257 258 259 257 253 251 249 250 254 259 264 268 271 274 275 275 277 278 281 285 287 287 286 286 286
220 221 225 229 227 224 221 218 215 217 225 230 233 233 232 232 231 228 230 234 236 236 234 236 239 242 243 244 245 246 246 246 247 247 245 242 240 239 242 247 253 255 255 252 251 254 257 255 252 249 247 248 252 257 259 257 254 253 253 255 256 258 259 260 260 259 255 252 253 258 263 266 268 272 276 277 277 277 277 277 279 285 290 290 290
219 218 221 225 228 227 225 223 219 218 223 228 231 233 234 235 235 232 230 233 237 238 236 235 236 238 241 242 242 244 245 246 247 248 247 244 240 239 240 245 251 256 258 255 252 253 256 258 257 254 250 247 248 252 257 260 259 258 256 253 254 256 258 261 264 266 264 260 256 257 263 266 266 268 273 276 277 278 278 277 277 281 285 289 293
223 220 220 223 228 229 227 226 225 223 223 225 229 233 235 237 238 237 235 233 236 240 239 237 235 236 238 240 241 242 243 245 246 248 248 246 241 239 241 244 250 255 258 258 256 255 255 257 258 258 255 252 248 248 253 258 261 261 259 256 254 254 256 260 265 269 270 268 263 259 261 265 267 270 273 275 277 278 281 281 281 281 281 285 293
230 224 222 223 228 230 227 226 227 227 226 225 228 232 235 238 239 240 239 236 236 239 241 240 237 235 235 236 239 240 241 242 244 246 247 246 243 240 241 244 249 253 257 259 259 257 255 256 259 261 261 259 256 253 251 254 260 263 260 258 257 256 256 258 263 268 272 273 269 264 261 263 267 271 275 276 278 281 284 285 283 281 280 283 290
235 227 224 225 229 231 227 224 227 230 229 227 229 232 235 239 240 241 241 239 238 238 241 242 240 238 237 237 237 238 240 241 243 244 246 247 245 243 242 244 248 252 255 257 258 257 256 256 258 261 263 264 265 263 256 252 256 262 262 261 260 259 258 259 262 267 270 272 272 268 264 264 267 271 274 277 280 284 288 288 285 283 284 285 288
236 230 226 226 229 231 228 224 225 230 231 230 231 234 236 239 241 242 242 241 239 238 239 242 243 241 240 239 238 237 238 240 242 244 246 246 246 244 243 243 245 247 250 252 254 255 255 256 257 259 262 265 266 266 262 255 253 257 261 263 263 261 259 260 263 265 266 269 271 271 270 269 270 272 274 276 279 284 289 289 288 289 290 290 291
235 231 228 228 229 231 229 224 223 227 232 233 234 235 236 239 241 244 244 243 241 239 239 241 243 243 241 240 239 238 237 238 240 243 245 245 245 243 242 241 240 241 244 247 250 252 252 254 256 258 261 264 266 266 264 259 254 253 256 260 261 262 262 262 261 262 264 265 267 270 272 274 275 276 276 278 282 286 288 289 290 292 293 294 294
234 233 230 231 231 232 231 226 223 225 230 234 236 237 238 239 242 244 245 244 242 241 240 240 242 242 241 240 239 238 237 236 237 240 242 243 243 242 240 237 236 237 240 243 246 248 250 252 255 257 259 262 265 267 266 262 257 253 252 253 256 260 262 263 261 261 263 264 264 267 272 277 280 281 281 284 287 288 286 286 289 291 291 292 292
235 234 232 233 234 233 232 230 226 225 229 234 238 239 240 241 243 244 245 244 243 241 240 240 241 241 241 239 238 237 237 234 234 235 238 240 240 240 238 235 234 235 237 240 242 245 248 250 253 256 258 261 264 266 267 265 261 256 252 251 253 256 259 260 261 261 262 263 264 267 271 276 280 281 283 286 286 285 284 285 287 288 288 289 289
234 234 233 234 235 234 233 232 229 227 230 235 239 241 243 243 244 245 246 244 242 241 240 240 240 240 240 238 235 234 235 234 232 232 234 236 237 237 236 234 233 233 234 236 240 243 246 249 251 254 258 261 264 266 266 267 266 263 259 256 256 257 258 258 260 261 264 267 270 272 273 273 274 276 280 283 282 281 283 285 287 287 288 289 289
233 234 234 234 236 236 234 233 230 228 230 234 238 241 244 245 245 247 248 246 243 241 240 239 239 238 237 236 233 231 231 231 231 231 231 233 235 235 233 232 231 231 231 234 239 243 246 248 250 254 258 261 263 266 269 271 271 268 265 264 262 260 259 258 260 262 266 270 274 275 274 271 271 273 276 277 278 280 284 286 287 287 289 289 288
232 235 235 236 237 237 236 234 232 231 231 234 238 242 245 247 247 248 249 248 245 241 239 240 239 236 235 234 232 230 228 228 230 231 231 231 234 235 233 230 230 230 231 233 238 242 245 247 249 252 255 259 263 267 270 271 270 268 267 266 265 264 262 261 263 265 267 269 271 271 272 273 274 275 275 276 279 283 286 287 288 288 289 290 289
231 234 236 237 239 239 238 237 236 236 237 237 239 243 246 248 248 249 249 249 246 242 241 242 240 236 233 233 233 231 229 228 230 232 233 232 232 234 233 231 230 232 234 236 238 240 242 243 244 246 250 256 262 265 266 265 265 265 266 268 270 273 275 275 275 277 276 275 275 277 278 278 279 280 281 282 285 288 289 289 290 291 291 291 291
230 232 235 237 239 240 240 240 239 240 241 241 242 245 248 249 250 250 250 250 248 245 243 244 243 238 233 232 233 233 231 229 229 232 234 233 231 231 233 233 233 234 236 236 236 235 235 235 238 242 246 250 252 254 256 259 262 263 266 270 276 282 287 290 292 292 292 290 290 290 289 288 287 288 288 288 288 289 290 291 293 294 293 291 289
230 231 233 236 239 241 242 242 242 242 243 244 244 246 249 252 254 255 252 249 246 244 243 242 240 237 233 230 231 232 232 230 229 230 232 233 231 231 233 235 236 236 234 232 231 230 227 227 232 237 238 239 242 246 252 258 263 266 269 272 277 282 286 290 293 295 295 293 291 290 289 289 289 289 289 289 289 289 289 288 287 289 291 289 286
229 230 232 234 237 240 241 242 242 243 244 245 246 248 249 252 254 255 251 245 241 241 241 239 236 233 231 230 230 232 232 230 229 228 229 231 232 233 234 236 236 232 226 223 223 223 221 222 226 230 233 238 243 248 254 259 264 268 272 275 278 281 283 287 290 290 288 287 287 288 289 289 290 291 292 292 292 291 290 288 285 285 286 285 283
229 231 232 233 235 237 240 242 242 243 245 247 248 249 250 250 252 253 249 243 240 240 239 237 234 232 231 230 230 232 232 230 229 229 230 232 234 233 233 232 229 222 216 215 216 216 218 221 225 231 236 242 247 251 255 260 264 268 271 273 275 278 280 282 283 282 282 284 287 289 290 291 291 292 292 292 292 291 290 290 290 287 283 280 279
230 231 232 233 234 235 237 239 240 242 244 247 249 250 250 249 250 252 249 243 240 240 239 236 234 232 231 231 231 231 232 232 231 231 231 232 231 230 228 227 222 216 214 215 214 214 218 223 229 236 241 245 250 254 257 260 263 266 269 272 274 276 277 278 279 280 282 286 288 289 290 290 290 291 292 292 292 290 289 290 292 290 284 278 276
230 230 231 232 234 235 237 238 240 241 242 243 244 245 246 246 246 247 247 242 240 240 239 236 234 232 231 232 233 233 233 232 231 229 227 227 227 226 226 224 220 217 217 218 217 218 222 228 234 241 246 250 254 258 260 263 265 267 271 275 277 277 277 278 279 281 284 286 287 288 288 289 291 294 294 293 292 291 290 290 291 291 287 282 280
232 232 232 233 233 235 236 237 240 241 242 243 242 240 239 238 239 241 242 240 238 240 240 237 234 233 231 231 233 233 233 232 230 226 224 223 223 225 226 226 225 224 225 226 226 228 232 237 243 249 254 257 260 262 265 267 270 272 275 277 279 280 281 281 282 283 284 286 286 287 288 290 293 294 294 292 291 290 290 291 291 290 287 286 285
232 232 234 234 234 235 235 236 238 240 242 244 244 241 236 230 228 231 235 236 236 237 238 236 232 231 230 231 231 231 231 231 229 227 225 224 224 226 228 229 230 232 233 234 236 239 242 247 252 256 261 264 266 267 268 271 274 276 277 278 279 280 281 282 282 282 282 283 284 286 288 291 293 293 291 289 289 291 292 292 290 288 285 284 283
232 234 235 236 236 236 236 236 237 239 240 241 242 243 239 230 223 220 223 227 231 233 233 231 228 227 227 228 229 229 229 229 230 229 229 230 231 232 234 235 236 238 239 241 244 247 250 254 258 261 263 265 266 267 268 270 274 276 277 277 278 278 278 279 280 280 279 280 282 285 288 289 291 291 287 284 285 290 291 289 286 284 284 284 283
233 235 236 235 236 237 237 237 238 239 241 241 240 240 238 233 226 219 215 216 222 227 228 225 223 224 226 227 227 229 229 229 231 232 233 235 237 238 239 241 242 243 245 247 249 252 255 257 260 261 262 263 264 265 268 271 273 276 277 278 278 278 277 278 279 279 279 280 282 284 286 286 286 286 284 282 285 289 289 286 284 284 285 286 285
232 234 235 236 236 236 237 238 238 239 240 240 239 237 234 231 229 225 217 212 215 222 225 224 222 222 225 227 228 231 232 233 234 236 237 239 240 242 243 245 247 248 250 252 253 256 257 259 260 261 262 264 266 267 270 272 273 275 276 277 277 278 278 278 279 280 281 282 283 283 282 281 282 283 283 284 286 287 287 287 287 286 285 285 284
230 233 235 237 238 238 238 238 239 240 241 240 238 237 233 229 228 227 221 214 213 217 220 223 224 223 225 229 231 233 236 237 238 240 242 244 247 248 250 251 252 253 255 256 257 258 259 260 262 264 265 266 268 269 271 272 273 273 274 276 278 278 278 278 280 282 284 283 282 281 280 281 282 283 284 284 284 285 286 288 287 286 284 283 283
231 233 236 237 239 241 241 240 239 239 240 239 238 238 234 229 228 227 222 217 216 215 215 220 224 225 226 231 233 235 238 240 242 244 247 250 253 255 256 257 258 259 259 260 260 260 261 262 263 264 265 267 268 269 270 271 271 272 274 276 277 276 276 277 281 283 283 281 281 281 281 282 283 283 282 282 283 284 285 286 285 284 284 284 285
232 235 237 239 240 242 242 242 240 238 237 237 237 236 234 231 230 228 223 220 220 217 214 218 225 227 228 231 233 235 239 242 245 248 251 254 257 258 258 259 260 261 261 261 261 261 262 262 263 265 266 268 269 270 270 271 272 273 274 274 274 274 275 278 281 281 280 279 280 281 282 283 284 284 283 282 282 283 283 284 285 285 285 287 288
231 234 236 238 241 244 243 242 241 239 238 237 236 235 234 231 231 230 227 222 221 219 216 217 221 224 226 229 232 236 240 244 247 250 253 255 256 257 257 258 259 259 260 261 261 262 262 264 265 266 267 268 269 270 271 272 272 272 272 272 274 275 276 277 277 277 277 278 279 281 282 283 284 284 284 283 282 282 282 283 284 285 286 287 287
230 233 235 237 240 243 244 244 243 242 240 238 236 237 235 231 230 232 228 221 217 218 219 220 222 224 225 228 234 238 242 245 248 250 252 254 255 257 258 258 259 260 260 260 261 262 263 265 266 267 268 269 269 270 271 271 271 271 271 273 274 275 274 274 274 274 275 277 279 280 282 283 283 283 283 282 282 282 283 284 284 285 286 287 288
229 232 234 237 239 244 249 249 244 241 242 241 239 240 239 235 234 232 223 213 211 215 219 222 226 227 228 232 238 241 243 246 249 251 253 256 257 259 260 261 261 262 261 261 262 262 263 264 266 268 269 270 270 270 270 270 270 270 271 272 273 273 273 273 274 275 276 278 280 281 283 284 285 284 284 283 284 285 285 286 286 287 288 290 290
228 232 234 236 237 242 250 250 242 237 238 239 239 238 238 237 235 227 213 204 205 209 214 220 225 227 230 234 239 241 243 246 250 252 255 257 258 259 261 261 261 261 260 260 261 262 263 265 266 267 268 269 270 271 271 272 273 274 274 274 275 275 275 275 275 277 278 279 282 284 285 286 285 285 285 285 286 286 287 288 289 290 291 291 291
227 230 234 235 235 236 241 246 248 244 237 233 233 236 236 233 224 213 206 206 208 209 213 219 223 226 229 234 238 240 243 247 249 251 253 255 257 260 261 261 260 259 259 260 261 262 263 264 265 266 268 269 270 271 273 274 275 276 278 279 279 279 278 278 278 279 280 281 283 285 286 286 285 285 285 286 287 288 289 290 291 291 291 291 292
226 228 232 235 235 237 239 243 247 249 242 233 234 238 233 219 208 204 209 217 220 219 221 222 223 225 229 232 235 239 243 245 247 250 252 254 257 260 261 261 261 260 261 262 262 262 263 265 266 268 270 271 272 274 275 276 278 280 281 282 282 281 282 282 282 283 283 284 285 286 286 286 286 285 286 287 288 289 290 290 291 291 291 292 292
228 229 231 233 235 237 239 240 242 244 243 240 241 244 237 221 215 220 230 238 239 235 231 227 226 227 229 231 234 238 240 243 246 249 252 255 258 260 262 263 265 266 266 267 268 269 270 272 273 274 274 275 276 278 278 279 281 282 283 283 283 283 284 285 285 286 287 288 289 289 288 287 287 287 287 288 288 289 290 291 291 292 292 292 293
230 231 231 232 234 236 238 239 241 243 245 244 244 245 244 238 234 237 243 247 247 242 234 229 229 229 231 232 234 236 237 241 245 248 251 255 258 261 264 266 268 269 271 273 274 275 277 279 280 280 281 281 282 282 282 282 282 282 282 282 283 283 284 284 285 286 287 288 289 289 289 288 287 286 286 286 288 290 291 291 291 291 291 292 293
228 231 232 233 234 236 237 239 241 244 247 248 246 244 244 243 243 243 245 247 247 242 234 230 231 233 235 236 235 235 236 240 243 246 251 255 259 261 264 266 268 269 271 273 275 276 278 279 280 281 282 283 283 283 283 283 283 283 283 283 283 283 284 284 284 285 286 286 286 287 288 288 287 285 283 285 288 289 289 289 289 289 289 290 291
226 230 232 233 234 235 237 239 241 243 246 248 249 249 249 248 247 245 244 245 245 243 237 233 233 236 238 237 236 237 241 244 246 248 252 255 258 261 263 265 267 269 270 272 274 276 277 278 279 280 281 282 282 282 283 283 283 284 284 284 285 285 285 285 285 285 284 284 284 284 285 286 285 284 283 284 286 287 287 288 290 291 291 290 290
226 229 232 233 234 235 236 239 242 244 246 248 250 253 253 252 250 248 245 243 243 243 241 238 236 236 237 237 238 240 243 245 246 249 252 255 257 259 262 264 266 268 269 271 273 274 275 276 278 280 281 282 282 283 283 283 283 284 284 284 285 285 285 285 285 286 285 284 284 283 283 283 283 283 283 284 285 286 288 290 292 292 292 291 290
Height
5925 5927 5929 5931 5933 5935 5938 5940 5943 5945 5947 5949 5951 5953 5954 5955 5957 5958 5959 5960 5960 5961 5962 5963 5964 5965 5966 5967 5967 5968 5969 5970 5971 5971 5972 5973 5973 5974 5974 5975 5975 5975 5974 5974 5973 5973 5973 5974 5974 5974 5974 5975 5975 5975 5976 5976 5977 5977 5977 5978 5978 5978 5979 5979 5979 5980 5980 5980 5980 5980 5980 5980 5980 5980 5980 5979 5979 5978 5977 5976 5975 5974 5973 5971 5970
5923 5925 5926 5929 5931 5933 5936 5938 5941 5943 5946 5948 5950 5951 5953 5954 5956 5957 5958 5959 5960 5961 5962 5963 5964 5965 5966 5966 5967 5968 5969 5970 5971 5972 5972 5973 5974 5974 5975 5975 5975 5975 5975 5975 5974 5974 5974 5974 5974 5974 5974 5975 5975 5975 5976 5976 5976 5977 5977 5978 5978 5979 5979 5979 5979 5980 5980 5980 5980 5980 5980 5980 5980 5980 5979 5979 5978 5977 5976 5976 5975 5974 5973 5972 5970
5921 5923 5925 5927 5929 5931 5934 5936 5939 5941 5944 5946 5948 5950 5951 5953 5954 5956 5957 5958 5959 5960 5961 5962 5963 5964 5965 5966 5967 5968 5969 5970 5970 5971 5972 5973 5974 5974 5974 5975 5975 5975 5976 5975 5975 5974 5974 5974 5974 5974 5975 5975 5975 5975 5976 5976 5976 5977 5977 5978 5978 5979 5979 5979 5979 5979 5980 5980 5980 5980 5980 5980 5980 5979 5979 5978 5977 5976 5976 5975 5974 5973 5972 5971 5970
5920 5921 5923 5925 5927 5929 5932 5934 5937 5939 5942 5944 5946 5948 5950 5951 5953 5954 5956 5957 5958 5959 5960 5961 5963 5964 5965 5966 5967 5967 5968 5969 5970 5971 5972 5973 5973 5974 5974 5975 5975 5975 5975 5975 5975 5975 5974 5974 5974 5975 5975 5975 5975 5975 5975 5976 5976 5976 5977 5977 5978 5979 5979 5979 5979 5979 5979 5980 5980 5980 5980 5980 5979 5979 5978 5977 5976 5975 5975 5975 5974 5973 5972 5971 5970
5919 5920 5922 5923 5925 5927 5930 5932 5934 5937 5939 5941 5943 5945 5947 5949 5951 5953 5954 5956 5957 5958 5959 5960 5961 5963 5964 5965 5966 5967 5968 5969 5970 5970 5971 5972 5973 5973 5974 5974 5975 5975 5975 5975 5975 5975 5975 5974 5974 5975 5975 5975 5975 5975 5975 5975 5976 5976 5976 5977 5978 5978 5978 5979 5979 5979 5979 5979 5979 5979 5979 5979 5979 5978 5977 5976 5975 5975 5975 5975 5974 5972 5971 5970 5969
5919 5919 5920 5922 5923 5925 5927 5930 5932 5934 5937 5939 5941 5943 5945 5947 5949 5951 5952 5954 5955 5957 5958 5959 5960 5961 5963 5964 5965 5966 5967 5968 5969 5970 5970 5971 5972 5973 5973 5974 5974 5974 5975 5975 5975 5975 5974 5974 5974 5974 5974 5975 5975 5975 5975 5975 5975 5975 5976 5976 5977 5977 5978 5978 5978 5978 5978 5979 5979 5979 5979 5978 5978 5977 5976 5976 5975 5975 5974 5974 5974 5972 5971 5969 5969
5918 5918 5919 5920 5922 5923 5925 5927 5929 5932 5934 5936 5938 5941 5943 5945 5947 5948 5950 5952 5953 5955 5956 5957 5958 5959 5961 5962 5964 5965 5966 5967 5968 5969 5969 5970 5971 5972 5972 5973 5973 5974 5974 5974 5974 5974 5974 5974 5974 5974 5974 5974 5974 5974 5974 5974 5974 5974 5975 5975 5976 5976 5976 5977 5977 5977 5977 5978 5978 5978 5978 5977 5977 5976 5976 5975 5975 5974 5974 5974 5973 5972 5970 5969 5968
5916 5917 5917 5918 5920 5921 5923 5925 5927 5929 5931 5934 5936 5938 5940 5942 5944 5946 5948 5950 5951 5953 5954 5955 5956 5957 5959 5960 5962 5963 5965 5966 5966 5967 5968 5969 5970 5970 5971 5972 5972 5972 5973 5973 5973 5973 5973 5973 5973 5973 5973 5973 5973 5973 5973 5973 5973 5973 5974 5974 5974 5975 5975 5975 5975 5976 5976 5976 5976 5976 5976 5976 5975 5975 5975 5975 5975 5974 5974 5973 5972 5971 5970 5968 5967
5914 5915 5916 5917 5918 5919 5921 5923 5925 5927 5929 5931 5933 5935 5937 5939 5941 5943 5945 5947 5948 5950 5951 5953 5954 5955 5957 5958 5960 5961 5963 5964 5965 5966 5966 5967 5968 5969 5970 5970 5970 5971 5971 5972 5972 5972 5972 5972 5972 5972 5972 5972 5972 5972 5972 5972 5972 5972 5972 5973 5973 5973 5973 5974 5974 5974 5974 5974 5974 5974 5974 5974 5974 5974 5974 5974 5974 5973 5973 5972 5971 5970 5969 5968 5965
5912 5913 5914 5915 5916 5918 5920 5921 5923 5925 5926 5928 5930 5932 5934 5936 5938 5940 5941 5943 5945 5947 5948 5950 5952 5953 5954 5956 5957 5959 5960 5962 5963 5963 5964 5965 5966 5967 5968 5968 5969 5969 5969 5970 5970 5970 5970 5971 5971 5971 5971 5971 5971 5971 5971 5971 5971 5971 5971 5971 5971 5971 5972 5972 5972 5972 5972 5972 5972 5972 5972 5972 5972 5972 5972 5973 5972 5972 5971 5970 5969 5969 5968 5967 5964
5909 5910 5911 5913 5914 5916 5918 5920 5921 5923 5924 5926 5927 5929 5931 5933 5935 5936 5938 5940 5942 5944 5945 5947 5949 5950 5951 5953 5955 5957 5958 5959 5959 5960 5962 5963 5964 5965 5966 5966 5967 5967 5967 5968 5968 5969 5969 5969 5969 5969 5969 5969 5969 5969 5969 5969 5969 5969 5969 5969 5969 5970 5970 5970 5970 5970 5970 5969 5969 5970 5970 5971 5971 5971 5971 5971 5971 5970 5970 5969 5968 5967 5966 5965 5963
5906 5908 5909 5910 5912 5914 5916 5918 5919 5921 5922 5924 5925 5926 5928 5930 5932 5933 5934 5936 5938 5940 5942 5944 5945 5947 5948 5950 5952 5954 5955 5955 5956 5957 5959 5960 5961 5962 5963 5964 5964 5965 5965 5966 5966 5967 5967 5967 5967 5968 5968 5967 5967 5967 5967 5968 5967 5967 5967 5967 5968 5967 5967 5967 5967 5967 5968 5967 5967 5967 5968 5969 5969 5969 5969 5969 5968 5968 5967 5967 5966 5965 5964 5963 5961
5903 5905 5907 5908 5910 5912 5914 5916 5917 5919 5920 5922 5923 5924 5926 5927 5929 5930 5931 5932 5934 5936 5938 5940 5941 5943 5945 5947 5948 5950 5952 5953 5953 5954 5956 5957 5958 5960 5961 5961 5962 5962 5963 5963 5964 5964 5965 5965 5966 5966 5966 5966 5966 5965 5965 5966 5966 5966 5965 5966 5966 5965 5965 5965 5965 5965 5965 5966 5965 5965 5966 5967 5967 5967 5967 5967 5966 5966 5965 5964 5963 5963 5962 5960 5959
5901 5903 5905 5906 5908 5910 5911 5913 5915 5917 5918 5919 5921 5922 5923 5924 5926 5927 5928 5929 5930 5932 5935 5936 5938 5939 5941 5943 5944 5946 5948 5949 5950 5951 5953 5954 5955 5957 5958 5958 5959 5960 5960 5961 5961 5962 5962 5963 5963 5963 5964 5964 5964 5964 5964 5964 5964 5964 5964 5963 5963 5963 5963 5963 5963 5963 5963 5964 5963 5963 5964 5965 5965 5965 5964 5964 5964 5963 5963 5962 5961 5960 5959 5957 5956
5898 5900 5902 5904 5906 5907 5909 5911 5913 5915 5916 5917 5919 5920 5921 5922 5923 5924 5926 5926 5927 5928 5930 5933 5935 5936 5937 5939 5940 5942 5944 5946 5947 5948 5949 5951 5953 5954 5955 5956 5957 5957 5957 5958 5959 5959 5959 5960 5960 5960 5961 5961 5962 5962 5962 5961 5961 5961 5961 5961 5961 5961 5961 5961 5961 5961 5961 5962 5962 5961 5961 5962 5962 5962 5961 5961 5960 5960 5960 5959 5958 5958 5956 5955 5954
5896 5898 5900 5902 5903 5905 5907 5908 5910 5912 5914 5915 5917 5918 5919 5920 5920 5922 5923 5924 5924 5925 5927 5929 5931 5932 5934 5935 5937 5938 5940 5942 5943 5944 5945 5947 5949 5951 5952 5953 5954 5954 5954 5955 5955 5956 5957 5957 5957 5957 5958 5958 5959 5959 5959 5959 5959 5959 5959 5959 5958 5958 5958 5958 5959 5959 5959 5959 5960 5959 5959 5958 5958 5958 5958 5957 5957 5957 5957 5957 5956 5955 5954 5953 5953
5894 5896 5897 5899 5901 5902 5904 5905 5907 5909 5911 5913 5914 5915 5916 5917 5918 5919 5920 5921 5922 5922 5923 5925 5926 5928 5930 5931 5933 5934 5936 5938 5939 5940 5941 5943 5946 5948 5949 5950 5951 5951 5952 5952 5952 5953 5954 5954 5954 5954 5955 5955 5956 5956 5957 5957 5957 5956 5956 5956 5956 5956 5956 5956 5956 5956 5957 5957 5957 5957 5956 5955 5955 5955 5954 5954 5954 5954 5954 5954 5953 5952 5951 5951 5950
5891 5893 5895 5896 5898 5899 5901 5902 5904 5906 5908 5910 5911 5912 5913 5914 5915 5916 5917 5918 5919 5919 5920 5921 5923 5924 5926 5928 5930 5931 5932 5933 5935 5936 5938 5939 5942 5944 5946 5947 5948 5949 5949 5949 5949 5950 5950 5951 5951 5951 5951 5952 5952 5953 5954 5954 5954 5954 5953 5954 5954 5953 5953 5953 5953 5954 5954 5954 5954 5953 5952 5952 5952 5952 5952 5951 5951 5951 5952 5951 5950 5949 5948 5948 5947
5888 5890 5892 5893 5894 5896 5897 5899 5900 5902 5904 5906 5908 5909 5910 5911 5912 5913 5914 5915 5916 5916 5917 5918 5919 5921 5923 5924 5926 5927 5928 5929 5931 5932 5934 5936 5938 5940 5942 5943 5945 5945 5945 5945 5946 5946 5947 5947 5948 5948 5948 5948 5949 5950 5950 5951 5951 5951 5951 5951 5951 5950 5950 5950 5951 5951 5951 5951 5950 5949 5949 5949 5949 5950 5950 5949 5949 5950 5950 5948 5947 5946 5945 5944 5943
5884 5886 5887 5889 5890 5892 5894 5895 5897 5899 5900 5902 5904 5905 5907 5908 5909 5910 5911 5911 5912 5913 5914 5915 5916 5917 5919 5920 5921 5923 5925 5926 5927 5928 5930 5931 5934 5936 5938 5940 5941 5941 5941 5942 5943 5943 5944 5944 5945 5945 5945 5945 5945 5946 5947 5947 5948 5948 5948 5948 5948 5947 5947 5948 5948 5948 5947 5947 5947 5946 5946 5947 5948 5948 5948 5948 5948 5948 5947 5945 5943 5943 5941 5940 5938
5879 5881 5883 5885 5887 5888 5890 5892 5894 5895 5897 5898 5900 5901 5903 5904 5905 5906 5907 5908 5909 5910 5911 5912 5913 5914 5915 5916 5918 5919 5921 5923 5924 5925 5926 5927 5929 5931 5934 5936 5936 5937 5938 5938 5939 5940 5940 5941 5941 5941 5942 5942 5942 5942 5943 5943 5944 5944 5945 5945 5945 5944 5944 5944 5945 5944 5944 5944 5944 5944 5945 5945 5946 5946 5946 5946 5946 5945 5943 5941 5940 5939 5938 5936 5935
5874 5876 5878 5880 5882 5885 5886 5888 5890 5892 5893 5894 5896 5898 5899 5901 5902 5902 5903 5904 5905 5907 5908 5909 5910 5911 5912 5913 5914 5915 5917 5919 5920 5921 5922 5923 5925 5927 5930 5931 5932 5933 5934 5935 5935 5936 5937 5937 5938 5938 5938 5938 5938 5938 5939 5939 5940 5940 5941 5941 5942 5941 5941 5941 5941 5941 5941 5941 5942 5943 5944 5944 5944 5943 5943 5943 5942 5940 5938 5937 5936 5935 5934 5932 5931
5869 5871 5874 5876 5878 5881 5882 5884 5886 5888 5890 5891 5893 5894 5895 5897 5898 5899 5900 5900 5902 5903 5904 5906 5906 5907 5908 5910 5911 5912 5913 5915 5916 5918 5918 5920 5921 5924 5926 5927 5928 5929 5931 5931 5931 5932 5933 5934 5934 5934 5934 5935 5935 5935 5935 5935 5936 5936 5937 5938 5938 5938 5938 5938 5938 5938 5939 5939 5940 5941 5942 5941 5940 5939 5938 5938 5937 5935 5934 5933 5932 5930 5929 5928 5927
5864 5866 5869 5872 5874 5876 5878 5880 5882 5884 5886 5888 5889 5890 5892 5893 5894 5895 5896 5897 5898 5900 5901 5902 5903 5904 5905 5906 5908 5909 5910 5911 5912 5914 5915 5916 5918 5920 5922 5923 5924 5926 5927 5927 5928 5928 5929 5930 5931 5931 5931 5931 5931 5931 5932 5932 5933 5933 5933 5934 5934 5935 5935 5935 5936 5936 5937 5937 5937 5937 5937 5936 5935 5934 5934 5933 5932 5930 5929 5929 5927 5926 5925 5924 5923
5859 5861 5864 5867 5870 5872 5874 5876 5878 5880 5882 5884 5885 5887 5888 5889 5891 5892 5893 5893 5895 5896 5898 5899 5900 5902 5903 5903 5905 5906 5907 5908 5909 5910 5911 5913 5914 5916 5918 5919 5921 5922 5923 5924 5924 5925 5926 5927 5928 5928 5928 5928 5928 5929 5929 5929 5930 5930 5930 5930 5931 5931 5932 5933 5933 5934 5934 5934 5933 5933 5932 5931 5931 5931 5930 5929 5928 5927 5926 5924 5923 5922 5921 5919 5918
5854 5857 5860 5862 5865 5867 5869 5871 5874 5876 5878 5880 5882 5883 5885 5886 5887 5888 5889 5890 5892 5893 5895 5896 5897 5899 5900 5901 5902 5902 5904 5905 5906 5906 5908 5909 5911 5912 5914 5916 5917 5918 5919 5920 5921 5922 5923 5924 5924 5925 5926 5926 5926 5926 5926 5926 5927 5927 5927 5927 5928 5928 5929 5930 5930 5930 5930 5930 5929 5929 5929 5929 5928 5928 5927 5926 5926 5924 5922 5920 5919 5918 5917 5915 5914
5850 5853 5855 5857 5860 5862 5864 5866 5869 5871 5873 5875 5877 5879 5881 5882 5883 5885 5886 5887 5889 5890 5891 5893 5894 5896 5897 5898 5899 5900 5901 5902 5903 5904 5905 5906 5908 5909 5910 5912 5913 5915 5916 5917 5918 5919 5920 5920 5921 5922 5923 5923 5923 5923 5923 5923 5924 5924 5924 5925 5925 5926 5926 5926 5926 5926 5926 5926 5926 5926 5926 5926 5925 5925 5924 5923 5922 5921 5918 5917 5916 5914 5913 5911 5910
5845 5848 5851 5853 5855 5856 5859 5861 5864 5866 5868 5870 5873 5875 5877 5878 5880 5882 5884 5885 5886 5887 5888 5889 5891 5892 5894 5895 5896 5897 5898 5900 5901 5902 5902 5903 5905 5906 5907 5908 5910 5911 5913 5913 5914 5915 5917 5918 5919 5920 5920 5920 5920 5920 5921 5921 5921 5921 5921 5921 5922 5922 5923 5923 5923 5923 5922 5922 5922 5922 5922 5921 5921 5920 5919 5919 5918 5917 5915 5913 5911 5909 5908 5907 5905
5840 5843 5846 5848 5849 5851 5853 5855 5858 5860 5862 5865 5868 5870 5873 5875 5877 5879 5881 5882 5882 5883 5884 5885 5886 5887 5889 5890 5892 5894 5896 5898 5898 5899 5900 5900 5901 5903 5904 5905 5906 5908 5909 5909 5910 5912 5914 5915 5916 5916 5917 5917 5917 5917 5918 5918 5918 5917 5918 5918 5918 5919 5919 5919 5919 5919 5919 5918 5918 5917 5916 5916 5916 5916 5915 5915 5914 5912 5910 5907 5905 5903 5902 5901 5900
5835 5838 5840 5842 5844 5846 5848 5850 5852 5854 5857 5860 5862 5866 5869 5871 5873 5875 5877 5878 5878 5879 5880 5881 5882 5883 5884 5886 5889 5891 5892 5893 5894 5895 5897 5897 5899 5900 5901 5902 5903 5904 5905 5906 5907 5909 5910 5912 5913 5913 5913 5914 5914 5914 5914 5914 5914 5914 5914 5914 5915 5915 5916 5916 5916 5915 5915 5914 5914 5913 5912 5912 5912 5911 5910 5908 5907 5905 5903 5900 5898 5897 5896 5895 5894
5830 5833 5834 5836 5838 5839 5841 5843 5845 5848 5851 5854 5858 5861 5864 5867 5868 5871 5873 5874 5874 5875 5876 5877 5877 5879 5881 5882 5884 5886 5888 5889 5891 5893 5894 5894 5895 5896 5897 5898 5899 5900 5901 5902 5904 5906 5907 5908 5909 5909 5909 5910 5910 5911 5911 5911 5911 5911 5911 5911 5911 5912 5912 5912 5911 5911 5911 5910 5909 5908 5907 5906 5905 5904 5903 5901 5900 5898 5896 5894 5892 5891 5890 5889 5889
5824 5827 5828 5829 5831 5832 5835 5838 5840 5843 5846 5848 5851 5855 5858 5861 5864 5866 5868 5869 5870 5871 5872 5873 5874 5875 5877 5879 5880 5882 5884 5885 5887 5889 5890 5891 5892 5892 5893 5894 5895 5896 5897 5899 5901 5902 5903 5904 5905 5905 5905 5906 5907 5907 5907 5907 5908 5908 5907 5907 5907 5908 5908 5908 5907 5906 5906 5905 5904 5903 5902 5900 5898 5898 5897 5895 5894 5892 5890 5889 5887 5886 5885 5885 5884
5819 5820 5821 5822 5824 5827 5830 5833 5835 5837 5840 5843 5845 5848 5850 5853 5857 5860 5862 5864 5866 5867 5868 5870 5871 5872 5873 5875 5877 5878 5880 5881 5883 5885 5887 5888 5888 5889 5890 5891 5892 5893 5894 5896 5897 5898 5899 5900 5901 5901 5901 5902 5903 5903 5903 5902 5903 5903 5903 5903 5903 5903 5903 5903 5902 5901 5900 5900 5899 5897 5896 5894 5893 5892 5891 5890 5888 5887 5886 5885 5883 5882 5881 5881 5880
5812 5814 5814 5815 5818 5821 5824 5827 5829 5831 5835 5839 5844 5846 5845 5844 5847 5852 5856 5859 5861 5863 5865 5866 5867 5869 5870 5872 5873 5875 5876 5878 5880 5882 5883 5884 5885 5886 5887 5888 5890 5891 5892 5893 5893 5894 5895 5896 5897 5897 5897 5898 5898 5897 5897 5897 5897 5898 5899 5899 5899 5899 5898 5897 5896 5895 5894 5894 5893 5892 5891 5889 5888 5887 5886 5885 5883 5882 5881 5881 5880 5878 5877 5877 5876
5806 5807 5808 5811 5813 5816 5818 5820 5822 5825 5829 5833 5838 5843 5845 5844 5843 5842 5846 5852 5856 5858 5860 5862 5864 5865 5866 5868 5870 5871 5873 5875 5876 5878 5879 5881 5882 5883 5884 5885 5887 5888 5888 5889 5890 5890 5891 5892 5893 5893 5893 5893 5893 5892 5892 5892 5892 5893 5893 5893 5893 5893 5892 5891 5890 5890 5889 5888 5887 5886 5886 5885 5883 5882 5881 5880 5879 5878 5877 5876 5875 5874 5874 5873 5872
5800 5800 5802 5805 5808 5810 5812 5814 5816 5820 5824 5827 5831 5835 5840 5844 5845 5842 5840 5842 5847 5852 5855 5857 5859 5861 5862 5864 5866 5868 5870 5871 5872 5874 5876 5877 5878 5880 5881 5882 5883 5884 5885 5885 5886 5887 5887 5888 5888 5888 5888 5888 5888 5888 5888 5888 5888 5887 5887 5887 5886 5886 5886 5885 5885 5884 5883 5883 5882 5881 5881 5880 5879 5877 5876 5875 5874 5873 5872 5871 5870 5870 5869 5868 5867
5793 5794 5796 5798 5801 5803 5806 5808 5812 5815 5817 5820 5824 5827 5830 5837 5843 5845 5842 5838 5840 5846 5851 5853 5855 5857 5859 5860 5863 5864 5866 5867 5868 5870 5871 5873 5875 5876 5878 5879 5880 5880 5881 5882 5882 5882 5883 5883 5883 5882 5882 5882 5882 5883 5883 5883 5883 5882 5882 5881 5880 5879 5879 5879 5879 5878 5877 5877 5876 5876 5876 5875 5873 5872 5872 5871 5870 5868 5867 5866 5865 5864 5864 5863 5862
5787 5788 5790 5792 5794 5796 5799 5803 5806 5809 5811 5812 5816 5820 5824 5830 5836 5840 5841 5839 5837 5840 5845 5848 5850 5852 5855 5856 5858 5860 5861 5863 5864 5865 5867 5869 5870 5872 5874 5875 5876 5876 5877 5877 5877 5877 5877 5876 5876 5875 5875 5875 5876 5877 5878 5878 5878 5877 5876 5875 5875 5874 5873 5872 5872 5871 5871 5871 5870 5870 5870 5869 5868 5867 5867 5866 5864 5863 5862 5861 5860 5858 5857 5857 5856
5781 5782 5784 5786 5788 5791 5794 5797 5800 5802 5804 5807 5809 5813 5818 5824 5828 5832 5836 5837 5833 5832 5836 5842 5846 5848 5850 5852 5853 5855 5856 5858 5859 5861 5862 5864 5866 5867 5868 5869 5870 5871 5871 5871 5870 5870 5870 5869 5869 5869 5869 5869 5871 5872 5872 5872 5871 5871 5870 5870 5869 5868 5867 5866 5866 5865 5864 5864 5864 5864 5864 5863 5862 5862 5861 5861 5859 5858 5857 5856 5854 5853 5852 5851 5850
5775 5777 5778 5780 5783 5787 5790 5793 5794 5796 5797 5800 5803 5806 5809 5814 5820 5824 5829 5831 5830 5828 5831 5836 5841 5843 5844 5846 5847 5849 5851 5853 5855 5856 5858 5859 5860 5861 5863 5863 5864 5865 5865 5865 5864 5863 5863 5863 5863 5863 5864 5864 5865 5866 5865 5865 5865 5864 5864 5863 5863 5862 5861 5861 5861 5860 5859 5859 5858 5858 5858 5857 5856 5856 5856 5855 5854 5853 5851 5850 5848 5847 5846 5845 5844
5769 5771 5773 5775 5778 5782 5785 5787 5788 5789 5791 5793 5796 5797 5800 5805 5811 5816 5821 5824 5826 5827 5828 5830 5833 5836 5837 5839 5842 5844 5847 5849 5850 5851 5853 5854 5855 5856 5857 5858 5858 5859 5859 5859 5858 5857 5857 5857 5857 5858 5858 5858 5859 5859 5859 5858 5858 5858 5857 5857 5857 5856 5856 5856 5855 5854 5853 5853 5852 5852 5852 5851 5850 5849 5849 5848 5847 5846 5845 5843 5842 5841 5840 5839 5838
5763 5766 5769 5771 5773 5776 5779 5780 5781 5782 5784 5788 5789 5791 5794 5799 5803 5806 5809 5811 5813 5816 5819 5822 5825 5828 5831 5833 5836 5839 5842 5844 5845 5846 5847 5848 5849 5850 5851 5852 5852 5853 5853 5852 5852 5851 5851 5851 5851 5851 5851 5852 5852 5852 5852 5852 5852 5851 5851 5851 5851 5851 5850 5850 5849 5849 5848 5847 5846 5845 5845 5844 5844 5843 5842 5841 5840 5839 5838 5837 5836 5835 5834 5832 5831
5758 5761 5764 5766 5769 5773 5773 5772 5773 5775 5779 5782 5784 5786 5789 5793 5796 5798 5799 5798 5798 5804 5810 5814 5818 5821 5825 5828 5831 5834 5836 5838 5839 5840 5841 5842 5843 5844 5845 5846 5846 5846 5846 5846 5845 5845 5845 5845 5845 5845 5845 5846 5846 5846 5846 5846 5846 5846 5846 5845 5845 5845 5845 5844 5843 5843 5842 5841 5840 5839 5838 5838 5837 5836 5835 5835 5834 5832 5831 5830 5829 5828 5826 5825 5823
5754 5757 5759 5762 5767 5771 5767 5762 5764 5768 5772 5775 5779 5781 5783 5785 5790 5795 5796 5794 5793 5798 5803 5807 5811 5815 5819 5822 5825 5828 5830 5832 5833 5834 5835 5836 5837 5838 5839 5840 5840 5840 5840 5840 5839 5839 5839 5840 5840 5840 5840 5840 5840 5840 5840 5840 5840 5840 5840 5839 5839 5839 5839 5838 5837 5836 5836 5835 5833 5832 5832 5831 5830 5829 5828 5827 5826 5825 5824 5823 5821 5820 5818 5816 5815
5749 5752 5754 5757 5762 5764 5761 5758 5760 5764 5766 5768 5772 5774 5776 5778 5783 5789 5792 5792 5792 5795 5799 5802 5805 5809 5812 5816 5819 5822 5823 5825 5826 5828 5829 5830 5831 5832 5832 5833 5834 5834 5834 5834 5834 5834 5834 5834 5834 5834 5834 5834 5834 5835 5835 5834 5834 5834 5834 5834 5833 5832 5832 5831 5831 5830 5829 5828 5827 5826 5825 5824 5823 5822 5821 5819 5818 5817 5816 5815 5813 5812 5810 5808 5807
5743 5746 5750 5753 5755 5756 5756 5759 5762 5763 5764 5765 5767 5769 5770 5772 5776 5781 5784 5786 5788 5791 5793 5797 5800 5803 5806 5810 5812 5814 5816 5818 5819 5821 5822 5824 5824 5825 5826 5827 5827 5828 5828 5828 5828 5828 5828 5828 5828 5828 5828 5828 5828 5829 5829 5829 5828 5828 5828 5827 5827 5826 5825 5824 5824 5823 5822 5821 5820 5819 5818 5816 5815 5814 5812 5811 5810 5809 5808 5807 5805 5804 5802 5800 5799
5737 5740 5743 5747 5749 5750 5752 5756 5760 5761 5762 5762 5763 5764 5767 5770 5773 5776 5778 5781 5783 5786 5789 5792 5796 5799 5801 5804 5805 5807 5809 5811 5812 5814 5815 5816 5817 5818 5819 5820 5820 5821 5821 5822 5821 5821 5821 5821 5821 5821 5822 5822 5822 5822 5823 5823 5822 5822 5821 5821 5820 5819 5818 5818 5817 5816 5815 5814 5813 5812 5810 5809 5807 5806 5804 5803 5802 5801 5800 5798 5797 5795 5794 5792 5790
5731 5734 5736 5740 5742 5744 5747 5751 5755 5757 5758 5758 5758 5760 5762 5764 5767 5770 5772 5774 5777 5780 5784 5788 5791 5793 5794 5796 5798 5799 5801 5803 5805 5807 5808 5809 5809 5810 5811 5812 5813 5814 5815 5815 5815 5815 5815 5814 5814 5814 5814 5815 5815 5815 5815 5815 5815 5814 5814 5813 5813 5812 5811 5811 5810 5809 5808 5806 5805 5804 5802 5801 5800 5798 5797 5796 5795 5793 5792 5790 5789 5787 5785 5783 5782
5725 5727 5730 5733 5736 5739 5742 5745 5748 5752 5754 5755 5756 5758 5759 5760 5762 5764 5766 5767 5770 5774 5778 5782 5785 5786 5788 5789 5791 5792 5794 5796 5798 5799 5800 5801 5802 5803 5804 5805 5806 5806 5807 5808 5808 5808 5808 5808 5807 5807 5807 5807 5807 5807 5807 5807 5806 5806 5805 5805 5805 5804 5804 5803 5802 5801 5800 5799 5797 5796 5795 5793 5792 5791 5789 5788 5787 5786 5784 5782 5781 5779 5777 5775 5773
5719 5721 5724 5727 5730 5733 5737 5739 5742 5746 5749 5750 5753 5755 5757 5758 5758 5760 5761 5761 5762 5767 5771 5775 5777 5778 5781 5783 5785 5786 5787 5789 5791 5792 5793 5794 5795 5796 5797 5797 5798 5799 5800 5801 5801 5801 5801 5801 5800 5800 5800 5800 5800 5799 5799 5799 5798 5798 5797 5797 5796 5796 5795 5795 5794 5793 5792 5791 5789 5788 5787 5785 5784 5782 5781 5780 5778 5776 5775 5773 5771 5769 5767 5765 5763
5713 5716 5718 5720 5723 5727 5731 5734 5737 5740 5743 5746 5748 5751 5754 5754 5755 5757 5759 5759 5759 5761 5764 5767 5769 5771 5773 5776 5778 5780 5781 5782 5783 5785 5786 5787 5788 5789 5790 5790 5791 5792 5793 5793 5794 5794 5793 5793 5793 5792 5792 5792 5792 5791 5791 5791 5790 5790 5789 5789 5788 5787 5787 5786 5785 5784 5783 5782 5781 5779 5778 5776 5775 5773 5772 5770 5769 5767 5765 5763 5760 5758 5756 5754 5751